Карточка аэропорта UHMM

Внимание!
Информация на этой странице в стадии наполнения.
Если вы не увидели какой-то информации, или заметили неточность - пожалуйста сообщите нам!
Спасибо!
Команда RU-STAFF
Название аэропортаСокол
Название аэропорта (англ.)Sokol
Превышение575 ft. (175.3 m.)
Координаты59°54.648', 150°43.2'
Высота перехода10000 ft
Эшелон переходаQNH>=1013hPa: FL110; 1013hPa>QNH>=977hPa: FL120; QNH<977hPa: FL130
Коды ответчика6540-6577
Зона ОрВДМагадан РПИ (UHMM)
Данные METARUHMM 250630Z 33005MPS 9999 FEW033 23/10 Q1010 R10/70D NOSIG RMK QFE743 R28/35005MPS 320V040
Проноз погоды (TAF)UHMM 250455Z 2506/2612 34005G11MPS 9999 SCT030CB BECMG 2509/2511 36003G09MPS TEMPO 2608/2612 4000 -SHRA BKN020CB
NOTAMshow/hide NOTAM
AWOS   TABLE

Информация о ВПП


Диспетчерские позиции

Позывной Наименование органа УВД Частота
UHMM_APPМагадан-Подход119.3
UHMM_TWRМагадан-Вышка120.8



Спутниковое изображение